This demonstration page uses our WeatherBlox Daily Observations layout. Learn more.

Left ArrowRight Arrow

Hourly Observations for January 5, 2022

Temp ( °F °C ) Dew Point ( °F °C ) Humidity (%) Winds ( mph kmh ) Pressure ( in mb ) Visibility ( mi km ) Precip ( " mm )
12:51 am 00:51 Clear 29 -1.7 27 -2.8 92 92 SE 5 7 30.13 1020 10 16 0.00 0.00
1:51 am 01:51 Clear 30 -1.1 26 -3.3 85 85 ESE 6 9 30.13 1020 10 16 0.00 0.00
2:51 am 02:51 Clear 29 -1.7 26 -3.3 89 89 Calm 30.11 1020 10 16 0.00 0.00
3:51 am 03:51 Clear 28 -2.2 26 -3.3 92 92 ESE 3 6 30.12 1020 10 16 0.00 0.00
4:51 am 04:51 Clear 30 -1.1 26 -3.3 85 85 SE 6 9 30.11 1020 10 16 0.00 0.00
5:51 am 05:51 Clear 29 -1.7 25 -3.9 85 85 ESE 5 7 30.12 1020 10 16 0.00 0.00
6:51 am 06:51 Clear 26 -3.3 24 -4.4 92 92 SSE 3 6 30.15 1021 10 16 0.00 0.00
7:51 am 07:51 Sunny 29 -1.7 26 -3.3 89 89 SE 5 7 30.15 1021 10 16 0.00 0.00
8:51 am 08:51 Sunny 34 1.1 28 -2.2 79 79 SE 5 7 30.16 1021 10 16 0.00 0.00
9:51 am 09:51 Sunny 40 4.4 29 -1.7 65 65 SSE 3 6 30.15 1021 10 16 0.00 0.00
10:51 am 10:51 Sunny 46 7.8 27 -2.8 47 47 VRB 3 6 30.15 1021 10 16 0.00 0.00
11:51 am 11:51 Sunny 49 9.4 27 -2.8 43 43 WNW 5 7 30.11 1020 10 16 0.00 0.00
12:51 pm 12:51 Sunny 54 12.2 26 -3.3 34 34 VRB 5 7 30.06 1018 10 16 0.00 0.00
1:51 pm 13:51 Sunny 55 12.8 26 -3.3 33 33 Calm 30.01 1016 10 16 0.00 0.00
2:51 pm 14:51 Sunny 57 13.9 27 -2.8 32 32 WSW 6 9 29.99 1016 10 16 0.00 0.00
3:51 pm 15:51 Sunny 59 15 27 -2.8 29 29 W 8 13 29.98 1015 10 16 0.00 0.00
4:51 pm 16:51 Sunny 57 13.9 25 -3.9 29 29 W 8 13 29.98 1015 10 16 0.00 0.00
5:51 pm 17:51 Clear 52 11.1 27 -2.8 38 38 WNW 5 7 30.00 1016 10 16 0.00 0.00
6:51 pm 18:51 Clear 45 7.2 29 -1.7 54 54 E 5 7 30.02 1017 10 16 0.00 0.00
7:51 pm 19:51 Clear 44 6.7 29 -1.7 55 55 NE 5 7 30.04 1017 10 16 0.00 0.00
8:51 pm 20:51 Clear 43 6.1 29 -1.7 58 58 E 5 7 30.04 1017 10 16 0.00 0.00
9:51 pm 21:51 Clear 39 3.9 30 -1.1 70 70 NNE 3 6 30.04 1017 10 16 0.00 0.00
10:51 pm 22:51 Clear 36 2.2 30 -1.1 79 79 Calm 30.06 1018 10 16 0.00 0.00
11:51 pm 23:51 Clear 35 1.7 29 -1.7 78 78 ESE 5 7 30.05 1018 10 16 0.00 0.00

Powered by AerisWeather